Oakes, ND

12:02 PM CST on November 22, 2019 (GMT -0600)
Oakes

Weather History for K2D5 - September, 2019

Change the Weather History Date:

Sunday, September 22, 2019

  Actual Average (WUND) Record (WUND)
Temperature  
Mean Temperature 58 °F -  
Max Temperature 69 °F - - (-1)
Min Temperature 48 °F - - (-1)
Degree Days  
Heating Degree Days 6    
Growing Degree Days 8 (Base 50)    
Moisture  
Dew Point 49 °F    
Average Humidity 76    
Maximum Humidity 100    
Minimum Humidity 40    
Precipitation  
Precipitation 0.00 in - - ()
Sea Level Pressure  
Sea Level Pressure 29.89 in    
Wind  
Wind Speed 7 mph (West)    
Max Wind Speed 14 mph    
Max Gust Speed 22 mph    
Visibility 10 miles    
Events      
Averages and records for this station are not official NWS values.
T = Trace of Precipitation, MM = Missing Value Source: NWS Daily Summary

Daily Weather History Graph

Daily Weather History Graph

Search for Another Location

Airport or City:

Astronomy

Sep. 22, 2019 Rise Set
Actual Time 7:19 AM CDT 7:30 PM CDT
Civil Twilight 6:49 AM CDT 8:00 PM CDT
Nautical Twilight 6:13 AM CDT 8:35 PM CDT
Astronomical Twilight 5:37 AM CDT 9:11 PM CDT
Moon No Moon Rise 3:48 PM CDT
Length of Visible Light 13h 11m
Length of Day
12h 11m
Last Quarter, 44% of the Moon is Illuminated
Sep 22
Last Quarter
Sep 28
New
Oct 5
First Quarter
Oct 13
Full
Oct 21
Last Quarter

Hourly Weather History & Observations

Time (CDT) Temp. Dew Point Humidity Pressure Visibility Wind Dir Wind Speed Gust Speed Precip Events Conditions
12:15 AM 53.6 °F 53.6 °F 100% 29.86 in 10.0 mi WNW 4.6 mph - N/A   Clear
12:35 AM 51.8 °F 51.8 °F 100% 29.87 in 10.0 mi West 6.9 mph - N/A   Clear
12:55 AM 53.6 °F 53.6 °F 100% 29.88 in 10.0 mi West 5.8 mph - N/A   Clear
1:15 AM 51.8 °F 51.8 °F 100% 29.89 in 10.0 mi West 8.1 mph - N/A   Clear
1:35 AM 51.8 °F 51.8 °F 100% 29.89 in 10.0 mi WNW 6.9 mph - N/A   Clear
1:55 AM 51.8 °F 51.8 °F 100% 29.89 in 10.0 mi WNW 6.9 mph - N/A   Clear
2:15 AM 51.8 °F 51.8 °F 100% 29.88 in 10.0 mi NW 3.5 mph - N/A   Clear
2:35 AM 51.8 °F 51.8 °F 100% 29.88 in 10.0 mi NW 6.9 mph - N/A   Clear
2:55 AM 50.0 °F 50.0 °F 100% 29.88 in 10.0 mi WNW 4.6 mph - N/A   Clear
3:15 AM 50.0 °F 50.0 °F 100% 29.88 in 10.0 mi WSW 4.6 mph - N/A   Clear
3:35 AM 50.0 °F 50.0 °F 100% 29.89 in 10.0 mi SSW 4.6 mph - N/A   Clear
3:55 AM 48.2 °F 48.2 °F 100% 29.90 in 10.0 mi SW 3.5 mph - N/A   Clear
4:15 AM 48.2 °F 48.2 °F 100% 29.90 in 10.0 mi SW 4.6 mph - N/A   Clear
4:35 AM 50.0 °F 50.0 °F 100% 29.90 in 10.0 mi WSW 5.8 mph - N/A   Clear
4:55 AM 50.0 °F 50.0 °F 100% 29.91 in 10.0 mi SW 6.9 mph - N/A   Clear
5:15 AM - - N/A% 29.91 in 10.0 mi SW 4.6 mph - N/A   Clear
5:35 AM 50.0 °F 50.0 °F 100% 29.92 in 10.0 mi SW 5.8 mph - N/A   Clear
5:55 AM 50.0 °F 50.0 °F 100% 29.92 in 10.0 mi SW 4.6 mph - N/A   Clear
6:15 AM 50.0 °F 50.0 °F 100% 29.92 in 10.0 mi SW 6.9 mph - N/A   Clear
6:35 AM 50.0 °F 50.0 °F 100% 29.91 in 10.0 mi WSW 5.8 mph - N/A   Clear
6:55 AM 50.0 °F 50.0 °F 100% 29.91 in 9.0 mi WSW 5.8 mph - N/A   Clear
7:15 AM 50.0 °F 50.0 °F 100% 29.91 in 9.0 mi West 5.8 mph - N/A   Clear
7:35 AM 50.0 °F 50.0 °F 100% 29.90 in 9.0 mi West 5.8 mph - N/A   Clear
7:55 AM 50.0 °F 50.0 °F 100% 29.91 in 10.0 mi West 5.8 mph - N/A   Clear
8:15 AM 51.8 °F 51.8 °F 100% 29.91 in 10.0 mi West 5.8 mph - N/A   Clear
8:35 AM 51.8 °F 51.8 °F 100% 29.91 in 10.0 mi SW 5.8 mph - N/A   Clear
8:55 AM 51.8 °F 51.8 °F 100% 29.92 in 10.0 mi SW 6.9 mph - N/A   Clear
9:15 AM 53.6 °F 53.6 °F 100% 29.92 in 10.0 mi SW 6.9 mph - N/A   Clear
9:35 AM 53.6 °F 53.6 °F 100% 29.92 in 10.0 mi WSW 4.6 mph - N/A   Clear
9:55 AM 55.4 °F 53.6 °F 94% 29.91 in 10.0 mi WSW 5.8 mph - N/A   Clear
10:15 AM 57.2 °F 53.6 °F 88% 29.92 in 10.0 mi WSW 4.6 mph - N/A   Clear
10:35 AM 59.0 °F 53.6 °F 82% 29.91 in 10.0 mi West 8.1 mph - N/A   Clear
10:55 AM 60.8 °F 53.6 °F 77% 29.91 in 10.0 mi West 6.9 mph - N/A   Clear
11:15 AM 60.8 °F 53.6 °F 77% 29.91 in 10.0 mi West 6.9 mph - N/A   Clear
11:35 AM 62.6 °F 53.6 °F 72% 29.91 in 10.0 mi West 8.1 mph - N/A   Clear
11:55 AM 64.4 °F 51.8 °F 64% 29.91 in 10.0 mi West 8.1 mph - N/A   Clear
12:15 PM 64.4 °F 51.8 °F 64% 29.90 in 10.0 mi West 9.2 mph - N/A   Clear
12:35 PM 66.2 °F 51.8 °F 60% 29.90 in 10.0 mi West 10.4 mph - N/A   Clear
12:55 PM 68.0 °F 50.0 °F 52% 29.90 in 10.0 mi WNW 12.7 mph - N/A   Partly Cloudy
1:15 PM 69.8 °F 48.2 °F 46% 29.90 in 10.0 mi WNW 9.2 mph - N/A   Scattered Clouds
1:35 PM 66.2 °F 46.4 °F 49% 29.89 in 10.0 mi West 10.4 mph 20.7 mph N/A   Partly Cloudy
1:55 PM 69.8 °F 44.6 °F 40% 29.88 in 10.0 mi WNW 13.8 mph 19.6 mph N/A   Clear
2:15 PM 69.8 °F 44.6 °F 40% 29.88 in 10.0 mi NW 11.5 mph 18.4 mph N/A   Partly Cloudy
2:35 PM 69.8 °F 44.6 °F 40% 29.87 in 10.0 mi West 13.8 mph 20.7 mph N/A   Mostly Cloudy
2:55 PM 69.8 °F 44.6 °F 40% 29.87 in 10.0 mi WNW 11.5 mph 21.9 mph N/A   Mostly Cloudy
3:15 PM 68.0 °F 44.6 °F 43% 29.87 in 10.0 mi West 13.8 mph - N/A   Partly Cloudy
3:35 PM 69.8 °F 44.6 °F 40% 29.87 in 10.0 mi WNW 13.8 mph - N/A   Scattered Clouds
3:55 PM 69.8 °F 44.6 °F 40% 29.86 in 10.0 mi NW 12.7 mph 18.4 mph N/A   Scattered Clouds
4:15 PM 69.8 °F 44.6 °F 40% 29.86 in 10.0 mi West 12.7 mph - N/A   Partly Cloudy
4:35 PM 69.8 °F 46.4 °F 43% 29.86 in 10.0 mi NW 12.7 mph - N/A   Mostly Cloudy
4:55 PM 69.8 °F 46.4 °F 43% 29.86 in 10.0 mi NW 9.2 mph - N/A   Overcast
5:15 PM 68.0 °F 46.4 °F 46% 29.87 in 10.0 mi NW 10.4 mph - N/A   Overcast
5:35 PM 69.8 °F 46.4 °F 43% 29.87 in 10.0 mi NW 8.1 mph - N/A   Overcast
5:55 PM 68.0 °F 46.4 °F 46% 29.87 in 10.0 mi WNW 8.1 mph - N/A   Overcast
6:15 PM 68.0 °F 48.2 °F 49% 29.87 in 10.0 mi West 5.8 mph - N/A   Scattered Clouds
6:35 PM 68.0 °F 50.0 °F 52% 29.87 in 10.0 mi West 5.8 mph - N/A   Clear
6:55 PM 66.2 °F 50.0 °F 56% 29.87 in 10.0 mi Calm Calm - N/A   Clear
7:15 PM 64.4 °F 50.0 °F 59% 29.87 in 10.0 mi Calm Calm - N/A   Clear
7:35 PM 60.8 °F 50.0 °F 68% 29.88 in 10.0 mi SW 5.8 mph - N/A   Clear
7:55 PM 60.8 °F 50.0 °F 68% 29.88 in 10.0 mi SW 5.8 mph - N/A   Clear
8:15 PM 57.2 °F 50.0 °F 77% 29.89 in 10.0 mi SSW 6.9 mph - N/A   Clear
8:35 PM 57.2 °F 50.0 °F 77% 29.89 in 10.0 mi SW 8.1 mph - N/A   Mostly Cloudy
8:55 PM 57.2 °F 48.2 °F 72% 29.89 in 10.0 mi SW 6.9 mph - N/A   Scattered Clouds
9:15 PM 57.2 °F 50.0 °F 77% 29.89 in 10.0 mi SW 6.9 mph - N/A   Mostly Cloudy
9:35 PM 57.2 °F 50.0 °F 77% 29.89 in 10.0 mi SW 8.1 mph - N/A   Mostly Cloudy
10:15 PM 55.4 °F 48.2 °F 77% 29.90 in 10.0 mi WSW 8.1 mph - N/A   Clear
10:35 PM 55.4 °F 46.4 °F 72% 29.91 in 10.0 mi WSW 6.9 mph - N/A   Clear
10:55 PM 55.4 °F 46.4 °F 72% 29.91 in 10.0 mi SW 6.9 mph - N/A   Partly Cloudy
11:15 PM 53.6 °F 46.4 °F 77% 29.91 in 10.0 mi SW 4.6 mph - N/A   Mostly Cloudy
11:35 PM 53.6 °F 46.4 °F 77% 29.91 in 10.0 mi SW 4.6 mph - N/A   Partly Cloudy
11:55 PM 53.6 °F 46.4 °F 77% 29.91 in 10.0 mi SW 4.6 mph - N/A   Clear